Regional Weather Roundup
Issued by NWS

Home | Current Version | Previous Version | Graphics & Text | Print | Product List | Glossary On
Versions: 1 2 3 4 5 6 7 8 9 10 11 12 13 14 15 16 17 18 19 20 21 22 23 24 25 26 27 28 29 30 31 32 33 34 35 36 37 38 39 40 41 42 43 44 45 46 47 48 49 50
000
ASUS43 KLSX 222059
RWRMO

WEATHER SUMMARY FOR MISSOURI
NATIONAL WEATHER SERVICE SPRINGFIELD MO
400 PM CDT WED OCT 22 2014

NOTE: "FAIR" INDICATES FEW OR NO CLOUDS BELOW 12,000 FEET WITH NO
       SIGNIFICANT WEATHER AND/OR OBSTRUCTIONS TO VISIBILITY.
       CURRENT SKY AND/OR WEATHER CONDITIONS ARE NOT AVAILABLE FOR
       CHILLICOTHE AND FARMINGTON.

MOZ001>031-035>038-043-044-053-054-222200-
...NORTHERN AND WESTERN MISSOURI...

CITY           SKY/WX    TMP DP  RH WIND       PRES   REMARKS
KANSAS CTY INT MOSUNNY   71  56  58 SE13      30.09F
KANSAS C DTWN  SUNNY     75  56  51 S10       30.09F
LEE`S SUMMIT   SUNNY     72  53  51 SE9       30.11F
ST JOSEPH      SUNNY     73  55  53 SE14      30.08F
KIRKSVILLE     SUNNY     64  45  49 SE14      30.18F

$$
MOZ066>068-077>081-088>096-101>105-222200-
...SOUTHWEST MISSOURI...

CITY           SKY/WX    TMP DP  RH WIND       PRES   REMARKS
SPRINGFIELD    SUNNY     70  48  45 S7        30.15F
JOPLIN         MOSUNNY   72  57  59 E6        30.12F

$$
MOZ032>034-039>042-045>050-055>058-069>072-222200-
...CENTRAL MISSOURI...

CITY           SKY/WX    TMP DP  RH WIND       PRES   REMARKS
COLUMBIA       SUNNY     65  44  46 SE8       30.19F
JEFFERSON CITY SUNNY     68  42  38 SE7       30.18F
ROLLA          SUNNY     65  41  41 SE7       30.18F
SEDALIA        SUNNY     70  48  45 SE12      30.16F
OSAGE BEACH    SUNNY     70  43  37 SE6       30.17F

$$
MOZ051-052-059>065-222200-
...EAST CENTRAL MISSOURI...

CITY           SKY/WX    TMP DP  RH WIND       PRES   REMARKS
ST LOUIS INTL  SUNNY     63  43  48 SE7       30.24F
SPIRIT OF STL  SUNNY     62  42  47 E5        30.23F
ST CHARLES     SUNNY     63  42  46 MISG      30.23F

$$
MOZ072>076-082>087-097>100-106>115-222200-
...SOUTH CENTRAL AND SOUTHEAST MISSOURI...

CITY           SKY/WX    TMP DP  RH WIND       PRES   REMARKS
CAPE GIRARDEAU SUNNY     65  42  43 NE7       30.22F
FARMINGTON     SUNNY     63  41  45 NE6       30.24F
POPLAR BLUFF   SUNNY     65  40  39 E8        30.20F
WEST PLAINS    SUNNY     66  44  45 CALM      30.20F

$$



USA.gov is the U.S. government's official web portal to all federal, state and local government web resources and services.